Location: Vinland
(47.7731°N, 122.6974°W)
Time: 00:56:50
(UTC+00:00)

Transit 4A - Pass Details

Date: 04 April 2023
Orbit: 864 x 979 km, 66.8° (Epoch: 29 May)

Event Time Altitude Azimuth Distance (km) Brightness Sun altitude
Exits shadow 10:47:20 - 143° (SE) 2,652 10.2 -26.8°
Reaches altitude 10° 10:47:58 10° 138° (SE) 2,511 10.1 -26.7°
Maximum altitude 10:51:15 16° 103° (ESE) 2,148 10.1 -26.3°
Drops below altitude 10° 10:54:35 10° 68° (ENE) 2,550 11.1 -26.0°
Sets 10:58:07 0° 48° (NE) 3,516 12.3 -25.5°
